Wind_Speed
26 26 26 27 28 28 28 29 29 30 31 32 32 33 33 34 35 36 36 37 37 38 38 39 39 39 38 38 38 38 39 39 40 40 41 42 42 43 43 44 44 45 45 45
26 26 25 26 27 27 27 28 29 29 31 33 33 33 32 33 33 34 34 35 36 36 37 38 38 38 38 38 38 38 39 40 40 41 41 42 42 43 43 43 44 44 45 44
25 24 24 25 26 26 27 28 29 30 31 32 33 33 32 32 32 32 33 33 34 35 35 35 36 36 37 37 37 38 39 40 40 41 41 42 43 43 43 43 43 44 44 44
24 24 25 25 25 26 27 28 29 30 31 32 32 33 30 30 31 31 31 32 32 32 33 34 34 35 36 37 37 37 38 40 41 41 42 42 42 42 43 43 43 43 43 43
23 24 24 25 25 26 27 28 29 30 30 31 30 31 28 28 29 29 30 30 30 31 32 32 33 35 36 37 38 39 39 40 41 41 41 41 41 41 42 42 43 43 43 43
23 24 25 25 25 26 26 27 28 29 28 29 27 28 27 26 26 27 28 29 29 30 32 32 33 33 35 36 37 38 38 39 39 40 40 41 40 40 41 42 43 43 43 43
23 24 25 25 26 26 26 27 27 28 28 28 26 26 25 25 25 26 27 28 29 30 31 32 32 33 34 35 36 37 37 38 39 39 40 40 41 40 40 40 41 42 42 43
24 24 25 26 26 27 27 27 27 29 29 28 27 26 25 25 26 26 27 28 29 30 31 32 32 33 34 35 35 36 37 37 38 39 39 39 40 40 40 40 40 41 41 42
25 25 25 26 26 27 27 27 27 28 29 28 27 26 26 26 26 27 27 28 29 30 31 32 33 34 34 34 35 36 36 36 37 37 38 38 38 39 38 39 40 40 41 41
26 26 25 25 25 26 26 26 27 28 29 29 28 26 26 26 26 27 28 29 30 31 31 31 33 34 35 35 36 36 36 37 37 37 37 37 37 37 37 38 38 39 39 40
26 26 25 25 25 25 26 26 28 29 29 30 30 28 26 26 27 28 29 29 30 31 32 32 32 33 34 35 36 36 36 37 37 36 37 37 36 36 36 37 37 38 39 39
26 27 26 26 26 26 26 27 27 28 29 30 31 30 28 28 29 30 30 30 30 31 31 32 32 33 34 35 35 35 35 36 36 36 36 36 36 37 37 37 37 37 38 37
28 28 28 27 27 27 27 27 28 29 29 29 30 29 29 29 29 30 30 30 31 31 31 31 32 33 34 35 35 35 35 35 35 35 35 35 35 36 36 36 37 37 37 37
28 29 28 28 28 28 28 28 29 29 30 30 29 29 29 30 30 30 30 30 31 32 32 32 32 33 33 34 34 35 35 35 35 35 35 35 35 35 36 36 36 36 36 37
28 28 28 28 29 29 29 28 28 29 29 30 29 29 29 30 30 30 30 30 31 32 32 32 33 33 34 34 33 33 34 35 35 35 35 35 36 36 36 36 35 35 35 35
29 29 28 28 29 30 30 29 28 28 29 30 30 29 28 29 29 30 30 31 31 32 32 33 33 33 33 33 32 32 32 33 34 35 35 36 36 36 36 36 37 36 36 35
29 29 29 29 29 30 30 28 28 28 29 30 30 29 29 30 30 30 31 32 33 33 32 32 32 32 32 32 31 30 31 32 33 34 34 35 35 36 36 37 37 36 36 35
29 29 29 29 29 30 29 28 28 29 29 29 29 29 29 29 30 31 32 32 32 32 32 31 31 31 31 31 30 30 31 31 32 33 33 33 34 35 35 35 34 34 34 34
28 28 29 29 29 30 29 29 28 28 28 28 28 28 28 29 29 29 31 31 31 30 31 30 30 30 30 29 29 30 31 31 32 32 32 32 33 33 34 34 34 34 34 34
28 29 29 29 29 28 28 28 28 28 28 28 28 28 28 28 27 27 29 29 29 29 29 29 29 30 29 29 28 29 30 32 32 33 33 33 33 33 32 33 34 34 34 33
27 28 28 28 28 27 27 27 27 27 27 26 26 26 26 27 27 27 27 28 28 28 28 28 28 28 28 28 28 28 29 29 30 31 31 32 32 32 31 31 31 31 31 31
26 27 27 27 27 27 27 27 26 25 25 26 25 26 26 26 27 27 27 27 27 27 27 27 27 27 27 27 27 27 27 27 27 27 28 28 29 29 29 29 29 29 28 28
26 26 25 26 25 26 26 25 25 25 25 24 24 24 25 25 26 26 27 27 27 26 26 26 26 26 27 27 26 26 26 26 26 26 26 26 26 27 27 27 27 27 26 26
26 25 25 25 24 24 25 24 24 24 24 24 24 24 25 25 25 26 26 27 27 26 26 26 27 27 27 27 26 26 26 26 26 26 25 25 26 26 25 24 24 24 24 23
25 25 25 24 24 24 24 24 24 23 23 24 24 24 25 25 25 25 26 26 27 26 26 26 27 27 27 27 26 26 26 26 26 26 26 25 25 24 23 23 22 21 21 21
24 24 24 24 24 23 23 23 23 23 23 24 24 24 25 25 25 25 25 26 26 26 26 26 26 26 26 26 26 26 25 25 25 25 25 25 24 23 22 21 20 19 19 20
Wind_Direction
276 275 274 274 273 274 275 275 275 275 275 274 275 275 275 274 273 272 270 270 268 268 267 266 266 266 267 268 267 266 264 265 265 265 265 265 265 264 263 263 264 264 265 265
277 276 276 276 276 275 275 276 277 277 277 276 276 276 277 276 274 272 271 270 268 267 268 267 266 266 267 267 267 266 265 265 266 266 266 265 266 266 265 265 265 265 266 266
279 279 278 278 278 277 277 279 279 279 280 279 278 277 278 277 276 273 271 270 269 269 269 269 268 267 267 268 268 267 266 266 266 267 267 266 267 267 267 266 266 266 266 267
280 280 279 279 281 282 281 282 283 282 282 282 282 282 279 277 277 275 273 271 270 271 270 271 271 270 268 268 268 269 268 267 267 268 268 268 268 268 268 267 267 267 267 268
282 282 281 281 283 284 285 285 285 285 285 285 284 283 280 278 277 276 274 273 273 272 271 271 272 270 269 269 268 269 269 268 267 268 269 269 269 269 268 268 268 268 268 268
284 284 282 282 283 284 285 286 287 287 287 287 286 284 282 279 279 278 277 276 275 275 274 273 273 272 271 270 269 269 269 268 269 269 269 270 270 269 269 269 269 269 270 270
285 285 284 283 283 284 285 287 288 288 288 288 288 287 285 282 280 279 280 278 277 278 277 276 275 274 273 272 271 270 269 269 269 269 270 271 271 271 271 271 270 270 270 270
287 287 286 286 285 285 285 285 286 289 291 290 289 289 287 285 282 281 281 281 279 278 279 278 277 277 275 274 273 272 271 270 271 271 271 272 273 273 273 272 271 271 270 270
288 288 288 288 286 284 283 283 285 287 288 290 289 289 287 286 285 283 282 282 282 281 279 279 279 278 277 275 274 273 272 272 273 272 272 273 274 274 274 273 273 273 272 271
287 288 289 289 287 285 284 284 285 286 287 288 290 291 289 287 285 284 284 284 284 283 282 281 281 280 278 278 278 275 273 274 275 274 274 275 275 275 275 275 275 276 275 273
287 288 287 287 286 285 285 285 286 286 286 287 289 292 292 290 287 286 287 286 286 284 283 282 283 283 281 281 280 276 276 276 276 275 276 276 276 276 277 278 277 277 276 275
286 286 286 286 284 284 283 284 285 286 287 287 287 291 293 292 289 289 289 288 287 287 286 284 284 283 282 282 280 278 277 276 276 276 276 277 277 277 277 278 278 278 277 276
285 285 285 285 285 284 283 283 284 284 285 287 289 291 291 292 290 290 291 290 288 287 287 286 286 285 283 282 280 279 278 277 277 277 277 277 277 277 277 277 278 279 278 278
283 283 284 285 285 286 286 284 284 284 283 286 289 291 289 290 289 289 290 289 289 288 288 287 286 286 284 283 280 279 279 277 277 276 277 277 277 277 278 278 279 280 279 279
282 282 282 281 283 285 286 285 284 283 283 285 288 290 290 289 288 289 289 290 290 290 290 289 287 286 285 283 281 280 280 279 278 277 277 278 278 278 278 279 280 280 281 280
280 280 280 279 281 284 284 285 285 284 283 285 286 288 289 289 288 288 290 291 291 292 292 290 288 287 286 285 283 281 281 280 279 278 278 278 278 278 278 279 279 279 280 281
279 279 281 280 282 283 283 287 288 287 286 286 286 287 287 287 288 289 290 291 293 293 294 293 291 289 288 286 284 282 282 281 281 280 280 279 278 278 278 279 278 278 278 279
279 280 281 283 283 283 286 287 288 288 288 287 287 287 288 288 289 289 291 292 293 294 294 294 292 290 289 286 283 283 283 283 283 283 283 282 280 279 278 278 277 277 278 279
278 280 282 284 284 285 286 287 288 288 287 287 287 288 287 288 289 289 291 293 294 295 296 295 294 293 290 287 283 282 283 284 285 285 285 283 282 281 279 278 277 276 277 278
278 280 282 284 286 286 288 288 288 289 287 287 287 288 289 289 290 291 292 294 294 295 296 295 295 295 293 290 287 284 284 284 285 285 285 284 283 282 281 279 277 276 277 277
279 280 281 284 286 287 289 290 290 289 289 287 287 288 289 290 292 293 294 295 295 296 296 296 295 295 295 292 290 288 288 287 287 286 286 286 285 284 283 280 278 277 277 277
279 280 280 282 285 288 289 290 290 290 289 289 289 289 290 290 291 292 294 296 296 297 297 297 297 297 297 294 293 292 292 291 289 289 289 289 288 286 284 281 280 278 277 276
278 279 279 280 284 287 288 288 288 289 289 289 290 291 291 292 291 292 294 296 298 298 297 297 297 297 298 297 296 294 292 292 291 292 292 293 293 290 286 283 281 279 277 275
278 278 278 279 281 285 287 287 287 289 289 290 291 292 293 293 293 293 295 296 298 299 298 298 297 298 299 298 297 295 294 293 292 293 294 295 296 295 291 286 283 280 276 273
276 277 278 279 280 282 285 287 287 288 289 290 291 293 294 293 292 293 294 296 298 299 299 299 299 298 299 299 298 296 294 293 292 293 293 294 294 294 292 289 286 281 277 274
275 277 279 279 280 282 284 286 286 287 288 290 291 293 295 294 294 294 296 298 298 299 300 299 299 299 299 300 299 297 295 294 293 293 294 293 292 292 291 291 288 283 279 276
Height
5706 5706 5705 5704 5703 5703 5702 5702 5702 5701 5700 5699 5699 5699 5698 5696 5695 5693 5693 5692 5692 5693 5693 5693 5692 5692 5692 5692 5692 5692 5692 5693 5693 5694 5694 5694 5694 5694 5694 5694 5694 5694 5695 5695
5700 5699 5698 5697 5696 5695 5694 5694 5694 5694 5692 5691 5690 5690 5689 5687 5685 5684 5683 5683 5682 5682 5682 5682 5682 5682 5682 5682 5682 5682 5682 5683 5683 5683 5683 5683 5683 5683 5683 5683 5683 5683 5683 5683
5693 5693 5691 5690 5689 5688 5687 5687 5686 5685 5684 5682 5681 5681 5680 5678 5676 5675 5674 5673 5673 5673 5673 5673 5673 5673 5673 5673 5673 5673 5673 5673 5673 5673 5673 5673 5673 5672 5673 5672 5672 5672 5672 5672
5687 5686 5685 5684 5683 5681 5680 5680 5679 5677 5676 5674 5672 5670 5672 5669 5668 5667 5666 5666 5665 5665 5664 5664 5664 5663 5663 5663 5663 5663 5663 5663 5663 5663 5663 5663 5663 5662 5662 5662 5661 5661 5661 5661
5681 5680 5679 5678 5677 5675 5674 5672 5671 5669 5668 5666 5664 5662 5664 5661 5660 5660 5659 5658 5658 5657 5656 5655 5654 5654 5653 5653 5653 5653 5653 5653 5653 5653 5652 5652 5652 5652 5651 5651 5651 5650 5650 5650
5675 5674 5672 5671 5670 5668 5667 5666 5664 5662 5660 5659 5658 5655 5655 5654 5653 5653 5652 5651 5650 5649 5648 5647 5645 5644 5643 5643 5643 5643 5643 5643 5642 5642 5642 5641 5641 5641 5641 5640 5640 5639 5639 5638
5670 5668 5666 5665 5663 5662 5660 5659 5657 5654 5653 5652 5651 5648 5649 5648 5647 5646 5645 5644 5643 5641 5640 5638 5637 5636 5635 5634 5634 5633 5633 5633 5632 5632 5631 5631 5631 5630 5630 5629 5629 5629 5628 5628
5664 5663 5661 5658 5657 5655 5654 5652 5651 5648 5646 5646 5644 5642 5644 5642 5640 5639 5638 5637 5635 5634 5632 5630 5629 5627 5626 5625 5625 5624 5624 5623 5623 5622 5621 5621 5620 5620 5619 5618 5618 5617 5617 5616
5657 5657 5654 5652 5650 5649 5647 5645 5644 5642 5640 5638 5637 5637 5637 5635 5633 5632 5631 5630 5628 5626 5625 5623 5621 5620 5618 5617 5616 5615 5614 5614 5613 5612 5612 5611 5610 5609 5608 5608 5607 5606 5605 5605
5651 5650 5649 5646 5644 5643 5642 5640 5638 5636 5633 5631 5631 5631 5630 5629 5627 5625 5624 5622 5621 5619 5617 5615 5613 5612 5610 5608 5607 5606 5605 5605 5604 5603 5602 5601 5600 5599 5599 5598 5597 5596 5595 5594
5645 5644 5642 5640 5638 5637 5636 5634 5631 5629 5628 5626 5624 5627 5624 5622 5620 5618 5616 5614 5613 5611 5609 5607 5605 5603 5601 5600 5598 5597 5596 5595 5594 5593 5592 5592 5591 5590 5589 5588 5587 5586 5585 5584
5638 5637 5635 5634 5632 5630 5629 5627 5626 5624 5622 5619 5618 5621 5617 5615 5613 5611 5609 5607 5605 5603 5601 5599 5597 5595 5593 5591 5589 5588 5587 5586 5585 5584 5583 5582 5581 5580 5579 5578 5577 5576 5575 5574
5631 5630 5628 5628 5628 5625 5623 5621 5619 5617 5615 5613 5612 5615 5610 5608 5605 5603 5601 5599 5597 5595 5593 5591 5588 5586 5584 5582 5581 5579 5578 5577 5576 5575 5574 5573 5572 5571 5570 5569 5568 5567 5565 5564
5624 5622 5622 5621 5618 5617 5616 5614 5612 5610 5608 5607 5607 5606 5604 5601 5598 5596 5594 5592 5589 5587 5585 5583 5580 5578 5575 5573 5572 5570 5569 5568 5566 5565 5564 5563 5562 5561 5560 5559 5558 5557 5555 5554
5616 5615 5614 5613 5611 5610 5608 5607 5605 5603 5601 5600 5600 5598 5597 5594 5591 5588 5586 5584 5582 5579 5577 5574 5572 5569 5567 5565 5563 5561 5559 5558 5557 5556 5555 5554 5552 5551 5550 5549 5548 5547 5546 5545
5608 5607 5607 5606 5604 5602 5601 5600 5598 5596 5595 5593 5592 5591 5590 5586 5583 5581 5579 5576 5574 5571 5568 5566 5563 5561 5558 5556 5554 5552 5550 5549 5547 5546 5545 5544 5542 5541 5540 5539 5538 5537 5536 5535
5600 5599 5599 5598 5597 5594 5594 5594 5591 5590 5588 5586 5584 5584 5581 5579 5576 5574 5571 5569 5566 5563 5560 5557 5555 5552 5550 5547 5545 5543 5542 5540 5538 5537 5535 5534 5532 5531 5530 5529 5528 5527 5526 5525
5593 5592 5590 5590 5589 5587 5590 5587 5584 5582 5581 5578 5577 5575 5573 5571 5568 5566 5564 5561 5558 5555 5552 5549 5546 5544 5541 5539 5537 5535 5533 5531 5529 5528 5526 5524 5522 5521 5520 5519 5518 5517 5516 5515
5586 5585 5583 5582 5580 5580 5581 5579 5577 5575 5574 5571 5569 5567 5565 5563 5561 5559 5556 5553 5550 5547 5544 5541 5539 5536 5533 5531 5529 5526 5525 5523 5521 5519 5517 5515 5513 5511 5510 5509 5508 5507 5506 5505
5579 5578 5577 5575 5573 5573 5575 5572 5569 5568 5567 5565 5562 5560 5558 5556 5554 5553 5549 5546 5543 5540 5537 5534 5531 5528 5526 5523 5520 5518 5516 5514 5512 5510 5508 5506 5503 5501 5500 5499 5497 5496 5495 5494
5572 5571 5570 5568 5566 5566 5566 5564 5562 5561 5560 5557 5555 5553 5551 5549 5547 5545 5542 5539 5536 5533 5530 5527 5524 5521 5518 5515 5513 5510 5508 5506 5503 5501 5499 5496 5494 5492 5490 5489 5487 5486 5486 5485
5565 5564 5563 5562 5560 5562 5558 5556 5555 5554 5552 5550 5548 5546 5544 5542 5540 5538 5535 5532 5529 5526 5523 5520 5517 5515 5511 5508 5506 5503 5501 5498 5495 5493 5490 5488 5485 5483 5481 5479 5478 5477 5476 5476
5558 5558 5557 5557 5557 5554 5551 5549 5548 5546 5545 5543 5541 5540 5538 5536 5533 5531 5529 5526 5523 5520 5517 5514 5511 5508 5505 5502 5499 5496 5494 5491 5488 5485 5483 5480 5478 5475 5472 5471 5469 5468 5468 5467
5552 5551 5550 5550 5549 5547 5545 5543 5542 5540 5539 5537 5535 5533 5531 5529 5527 5525 5522 5520 5517 5514 5511 5508 5505 5502 5499 5495 5492 5489 5487 5484 5481 5479 5476 5473 5471 5468 5465 5463 5462 5461 5460 5460
5545 5544 5544 5543 5543 5541 5539 5537 5536 5534 5533 5531 5529 5527 5525 5523 5521 5518 5516 5513 5510 5507 5504 5501 5498 5495 5492 5489 5486 5483 5480 5477 5474 5472 5469 5467 5464 5461 5459 5457 5455 5454 5453 5453
5539 5539 5538 5537 5536 5534 5533 5531 5530 5528 5527 5525 5524 5522 5519 5517 5514 5512 5509 5507 5504 5501 5498 5495 5492 5489 5486 5482 5479 5476 5473 5470 5467 5465 5463 5460 5458 5455 5453 5451 5450 5448 5448 5447